Location: Melbourne
(37.8666°S, 145.1333°E)
Time: 11:11:34
(UTC+10:00)

Iridium 72 - Visible Passes

Search period start: 23 May 2015 00:00
Search period end: 02 June 2015 00:00
Orbit: 776 x 779 km, 86.4° (Epoch: 22 May)

Date Brightness Start Highest point End Pass type
(mag) Time Alt. Az. Time Alt. Az. Time Alt. Az.
27 May8.318:46:57NE18:46:57NE18:34:28SSEvisible
27 May8.620:27:18NNW20:27:18NNW20:14:59SSWvisible
28 May8.118:11:35ENE18:11:35ENE18:01:52SSEvisible
28 May 7.6 19:51:55 18° N 19:51:55 18° N 19:53:11 10° N visible
29 May 5.9 19:09:12 10° S 19:15:45 47° NE 19:19:39 10° NNE visible
29 May 8.4 20:55:57 12° W 20:55:57 12° W 20:57:04 10° WNW visible
30 May 8.4 06:26:15 10° ENE 06:28:51 14° E 06:31:44 10° SE visible
30 May 6.1 18:36:04 10° SSE 18:40:47 33° E 18:45:31 10° NE visible
30 May 7.5 20:17:03 10° SSW 20:21:23 26° W 20:25:34 10° NW visible
31 May 6.8 18:03:28 10° SE 18:06:56 18° ESE 18:10:34 10° ENE visible
31 May 6.4 19:42:57 10° SSW 19:48:02 47° W 19:53:01 10° NNW visible
01 Jun 7.2 06:57:20 10° NNE 07:02:08 39° E 07:07:03 10° SSE visible
01 Jun 5.4 19:09:15 10° S 19:14:34 89° WSW 19:19:49 10° N visible
